Time,TemperatureF,DewpointF,PressureIn,WindDirection,WindDirectionDegrees,WindSpeedMPH,WindSpeedGustMPH,Humidity,HourlyPrecipIn,Conditions,Clouds,dailyrainin,SoftwareType,DateUTC
2013-06-01 00:01:00,68.3,61.5,30.06,ENE,67,0.0,1.0,79,0.00,,,0.00,Wunderground v.1.15,2013-06-01 04:01:00,
2013-06-01 00:02:00,68.3,61.5,30.06,SSE,153,7.0,7.0,79,0.00,,,0.00,Wunderground v.1.15,2013-06-01 04:02:00,
2013-06-01 00:03:00,68.3,61.5,30.06,ESE,103,0.0,7.0,79,0.00,,,0.00,Wunderground v.1.15,2013-06-01 04:03:00,
2013-06-01 00:04:00,68.3,61.5,30.06,ESE,103,0.0,7.0,79,0.00,,,0.00,Wunderground v.1.15,2013-06-01 04:04:00,
2013-06-01 00:09:00,68.3,61.5,30.07,ESE,105,0.0,7.0,79,0.00,,,0.00,Wunderground v.1.15,2013-06-01 04:09:00,
2013-06-01 00:10:00,68.3,61.5,30.07,ESE,105,0.0,0.0,79,0.00,,,0.00,Wunderground v.1.15,2013-06-01 04:10:00,
2013-06-01 00:15:00,68.3,61.5,30.07,ESE,105,0.0,0.0,79,0.00,,,0.00,Wunderground v.1.15,2013-06-01 04:15:00,
2013-06-01 00:20:00,68.1,61.7,30.07,SE,146,0.0,0.0,80,0.00,,,0.00,Wunderground v.1.15,2013-06-01 04:20:00,
2013-06-01 00:25:00,68.0,61.6,30.07,SSE,157,0.0,0.0,80,0.00,,,0.00,Wunderground v.1.15,2013-06-01 04:25:00,
2013-06-01 00:30:00,67.9,61.5,30.06,ESE,105,0.0,0.0,80,0.00,,,0.00,Wunderground v.1.15,2013-06-01 04:30:00,
2013-06-01 00:35:00,67.9,61.5,30.06,ESE,107,0.0,0.0,80,0.00,,,0.00,Wunderground v.1.15,2013-06-01 04:35:00,
2013-06-01 00:41:00,67.9,61.5,30.06,SE,145,6.0,6.0,80,0.00,,,0.00,Wunderground v.1.15,2013-06-01 04:41:00,
2013-06-01 00:46:00,67.9,61.5,30.06,South,170,0.0,6.0,80,0.00,,,0.00,Wunderground v.1.15,2013-06-01 04:46:00,
2013-06-01 00:51:00,67.9,61.5,30.06,SE,135,0.0,0.0,80,0.00,,,0.00,Wunderground v.1.15,2013-06-01 04:51:00,
2013-06-01 00:56:00,67.8,61.8,30.07,SE,135,0.0,0.0,81,0.00,,,0.00,Wunderground v.1.15,2013-06-01 04:56:00,
2013-06-01 01:02:00,67.6,61.6,30.07,SE,136,0.0,0.0,81,0.00,,,0.00,Wunderground v.1.15,2013-06-01 05:02:00,
2013-06-01 01:07:00,67.5,61.5,30.06,SE,136,0.0,0.0,81,0.00,,,0.00,Wunderground v.1.15,2013-06-01 05:07:00,
2013-06-01 01:12:00,67.4,61.4,30.06,SE,136,0.0,0.0,81,0.00,,,0.00,Wunderground v.1.15,2013-06-01 05:12:00,
2013-06-01 01:17:00,67.3,61.6,30.06,SE,134,0.0,0.0,82,0.00,,,0.00,Wunderground v.1.15,2013-06-01 05:17:00,
2013-06-01 01:22:00,67.3,61.6,30.06,SE,134,0.0,0.0,82,0.00,,,0.00,Wunderground v.1.15,2013-06-01 05:22:00,
2013-06-01 01:27:00,67.2,61.5,30.06,SE,134,0.0,0.0,82,0.00,,,0.00,Wunderground v.1.15,2013-06-01 05:27:00,
2013-06-01 01:33:00,67.2,61.5,30.06,SE,134,0.0,0.0,82,0.00,,,0.00,Wunderground v.1.15,2013-06-01 05:33:00,
2013-06-01 01:38:00,67.2,61.5,30.06,SE,136,0.0,0.0,82,0.00,,,0.00,Wunderground v.1.15,2013-06-01 05:38:00,
2013-06-01 01:43:00,67.2,61.5,30.06,SE,143,0.0,0.0,82,0.00,,,0.00,Wunderground v.1.15,2013-06-01 05:43:00,
2013-06-01 01:48:00,67.2,61.5,30.06,SE,143,0.0,0.0,82,0.00,,,0.00,Wunderground v.1.15,2013-06-01 05:48:00,
2013-06-01 01:53:00,67.3,61.6,30.06,SE,140,0.0,0.0,82,0.00,,,0.00,Wunderground v.1.15,2013-06-01 05:53:00,
2013-06-01 01:59:00,67.5,61.8,30.06,ESE,115,0.0,0.0,82,0.00,,,0.00,Wunderground v.1.15,2013-06-01 05:59:00,
2013-06-01 02:04:00,67.7,61.7,30.06,ESE,122,0.0,0.0,81,0.00,,,0.00,Wunderground v.1.15,2013-06-01 06:04:00,
2013-06-01 02:09:00,67.9,61.9,30.07,ESE,104,0.0,0.0,81,0.00,,,0.00,Wunderground v.1.15,2013-06-01 06:09:00,
2013-06-01 02:14:00,68.1,62.0,30.07,ENE,74,0.0,0.0,81,0.00,,,0.00,Wunderground v.1.15,2013-06-01 06:14:00,
2013-06-01 02:19:00,68.5,62.1,30.07,ENE,67,0.0,5.0,80,0.00,,,0.00,Wunderground v.1.15,2013-06-01 06:19:00,
2013-06-01 02:24:00,68.6,62.2,30.07,ENE,69,0.0,1.0,80,0.00,,,0.00,Wunderground v.1.15,2013-06-01 06:24:00,
2013-06-01 02:29:00,68.6,62.2,30.08,ENE,67,0.0,3.0,80,0.00,,,0.00,Wunderground v.1.15,2013-06-01 06:29:00,
2013-06-01 02:34:00,68.4,62.0,30.07,ENE,65,0.0,3.0,80,0.00,,,0.00,Wunderground v.1.15,2013-06-01 06:34:00,
2013-06-01 02:39:00,68.4,62.0,30.08,ENE,76,0.0,3.0,80,0.00,,,0.00,Wunderground v.1.15,2013-06-01 06:39:00,
2013-06-01 02:44:00,68.4,62.0,30.08,SE,126,0.0,4.0,80,0.00,,,0.00,Wunderground v.1.15,2013-06-01 06:44:00,
2013-06-01 02:49:00,68.3,62.2,30.08,SE,126,0.0,4.0,81,0.00,,,0.00,Wunderground v.1.15,2013-06-01 06:49:00,
2013-06-01 02:54:00,68.3,62.2,30.08,SE,126,0.0,0.0,81,0.00,,,0.00,Wunderground v.1.15,2013-06-01 06:54:00,
2013-06-01 02:59:00,68.3,62.2,30.08,ESE,119,1.0,2.0,81,0.00,,,0.00,Wunderground v.1.15,2013-06-01 06:59:00,
2013-06-01 03:04:00,68.3,62.6,30.08,ESE,119,0.0,2.0,82,0.00,,,0.00,Wunderground v.1.15,2013-06-01 07:04:00,
2013-06-01 03:09:00,68.3,62.6,30.08,ESE,119,0.0,2.0,82,0.00,,,0.00,Wunderground v.1.15,2013-06-01 07:09:00,
2013-06-01 03:14:00,68.4,62.7,30.07,ESE,119,0.0,0.0,82,0.00,,,0.00,Wunderground v.1.15,2013-06-01 07:14:00,
2013-06-01 03:19:00,68.4,62.7,30.07,ESE,119,0.0,0.0,82,0.00,,,0.00,Wunderground v.1.15,2013-06-01 07:19:00,
2013-06-01 03:24:00,68.3,62.6,30.07,ESE,119,0.0,0.0,82,0.00,,,0.00,Wunderground v.1.15,2013-06-01 07:24:00,
2013-06-01 03:29:00,68.3,62.6,30.07,ESE,119,0.0,0.0,82,0.00,,,0.00,Wunderground v.1.15,2013-06-01 07:29:00,
2013-06-01 03:34:00,68.1,62.4,30.07,ESE,119,0.0,0.0,82,0.00,,,0.00,Wunderground v.1.15,2013-06-01 07:34:00,
2013-06-01 03:39:00,68.1,62.4,30.07,ESE,119,0.0,1.0,82,0.00,,,0.00,Wunderground v.1.15,2013-06-01 07:39:00,
2013-06-01 03:44:00,68.0,62.3,30.07,SE,127,0.0,1.0,82,0.00,,,0.00,Wunderground v.1.15,2013-06-01 07:44:00,
2013-06-01 03:49:00,68.0,62.3,30.07,ESE,123,0.0,1.0,82,0.00,,,0.00,Wunderground v.1.15,2013-06-01 07:49:00,
2013-06-01 03:54:00,68.0,62.3,30.07,ESE,123,0.0,0.0,82,0.00,,,0.00,Wunderground v.1.15,2013-06-01 07:54:00,
2013-06-01 03:59:00,68.1,62.4,30.07,ESE,123,0.0,1.0,82,0.00,,,0.00,Wunderground v.1.15,2013-06-01 07:59:00,
2013-06-01 04:04:00,68.1,62.4,30.07,ESE,123,0.0,1.0,82,0.00,,,0.00,Wunderground v.1.15,2013-06-01 08:04:00,
2013-06-01 04:09:00,68.2,62.5,30.07,ESE,123,0.0,1.0,82,0.00,,,0.00,Wunderground v.1.15,2013-06-01 08:09:00,
2013-06-01 04:14:00,68.2,62.5,30.07,ESE,123,0.0,1.0,82,0.00,,,0.00,Wunderground v.1.15,2013-06-01 08:14:00,
2013-06-01 04:19:00,68.2,62.5,30.07,ESE,123,0.0,1.0,82,0.00,,,0.00,Wunderground v.1.15,2013-06-01 08:19:00,
2013-06-01 04:24:00,68.1,62.4,30.07,ESE,123,0.0,0.0,82,0.00,,,0.00,Wunderground v.1.15,2013-06-01 08:24:00,
2013-06-01 04:29:00,68.1,62.4,30.07,ESE,123,0.0,1.0,82,0.00,,,0.00,Wunderground v.1.15,2013-06-01 08:29:00,
2013-06-01 04:34:00,68.0,62.3,30.07,ESE,123,0.0,0.0,82,0.00,,,0.00,Wunderground v.1.15,2013-06-01 08:34:00,
2013-06-01 04:39:00,68.0,62.3,30.07,ESE,123,0.0,0.0,82,0.00,,,0.00,Wunderground v.1.15,2013-06-01 08:39:00,
2013-06-01 04:44:00,68.0,61.9,30.07,ESE,123,0.0,0.0,81,0.00,,,0.00,Wunderground v.1.15,2013-06-01 08:44:00,
2013-06-01 04:49:00,68.1,62.0,30.07,ESE,123,0.0,0.0,81,0.00,,,0.00,Wunderground v.1.15,2013-06-01 08:49:00,
2013-06-01 04:54:00,68.1,62.0,30.07,ESE,123,0.0,0.0,81,0.00,,,0.00,Wunderground v.1.15,2013-06-01 08:54:00,
2013-06-01 04:59:00,68.1,62.0,30.07,ESE,123,0.0,1.0,81,0.00,,,0.00,Wunderground v.1.15,2013-06-01 08:59:00,
2013-06-01 05:04:00,68.1,62.0,30.06,ESE,123,0.0,1.0,81,0.00,,,0.00,Wunderground v.1.15,2013-06-01 09:04:00,
2013-06-01 05:09:00,68.1,62.0,30.07,ESE,123,0.0,1.0,81,0.00,,,0.00,Wunderground v.1.15,2013-06-01 09:09:00,
2013-06-01 05:14:00,68.0,61.9,30.07,ESE,123,0.0,0.0,81,0.00,,,0.00,Wunderground v.1.15,2013-06-01 09:14:00,
2013-06-01 05:19:00,67.9,61.9,30.07,ESE,123,0.0,1.0,81,0.00,,,0.00,Wunderground v.1.15,2013-06-01 09:19:00,
2013-06-01 05:24:00,67.9,61.9,30.06,ESE,123,0.0,0.0,81,0.00,,,0.00,Wunderground v.1.15,2013-06-01 09:24:00,
2013-06-01 05:29:00,67.8,61.8,30.07,ESE,123,0.0,0.0,81,0.00,,,0.00,Wunderground v.1.15,2013-06-01 09:29:00,
2013-06-01 05:35:00,67.7,61.7,30.06,ESE,123,0.0,1.0,81,0.00,,,0.00,Wunderground v.1.15,2013-06-01 09:35:00,
2013-06-01 05:40:00,67.6,61.6,30.06,ESE,123,0.0,1.0,81,0.00,,,0.00,Wunderground v.1.15,2013-06-01 09:40:00,
2013-06-01 05:45:00,67.5,61.8,30.06,ESE,123,0.0,1.0,82,0.00,,,0.00,Wunderground v.1.15,2013-06-01 09:45:00,
2013-06-01 05:49:00,67.4,61.7,30.05,SE,126,0.0,4.0,82,0.00,,,0.00,Wunderground v.1.15,2013-06-01 09:49:00,
2013-06-01 05:55:00,67.2,61.5,30.05,SSE,150,0.0,4.0,82,0.00,,,0.00,Wunderground v.1.15,2013-06-01 09:55:00,
2013-06-01 06:00:00,67.0,61.3,30.06,SSE,159,0.0,4.0,82,0.00,,,0.00,Wunderground v.1.15,2013-06-01 10:00:00,
2013-06-01 06:05:00,66.8,61.5,30.06,SSE,160,0.0,0.0,83,0.00,,,0.00,Wunderground v.1.15,2013-06-01 10:05:00,
2013-06-01 06:10:00,66.6,61.3,30.07,SSE,160,0.0,0.0,83,0.00,,,0.00,Wunderground v.1.15,2013-06-01 10:10:00,
2013-06-01 06:15:00,66.4,61.1,30.07,SSE,160,0.0,0.0,83,0.00,,,0.00,Wunderground v.1.15,2013-06-01 10:15:00,
2013-06-01 06:20:00,66.2,60.9,30.07,SSE,160,0.0,0.0,83,0.00,,,0.00,Wunderground v.1.15,2013-06-01 10:20:00,
2013-06-01 06:25:00,66.0,61.0,30.07,SSE,160,0.0,0.0,84,0.00,,,0.00,Wunderground v.1.15,2013-06-01 10:25:00,
2013-06-01 06:30:00,65.8,60.8,30.07,WNW,285,4.0,4.0,84,0.00,,,0.00,Wunderground v.1.15,2013-06-01 10:30:00,
2013-06-01 06:35:00,65.7,60.7,30.07,NNE,16,0.0,4.0,84,0.00,,,0.00,Wunderground v.1.15,2013-06-01 10:35:00,
2013-06-01 06:40:00,65.6,60.3,30.06,ENE,66,0.0,0.0,83,0.00,,,0.00,Wunderground v.1.15,2013-06-01 10:40:00,
2013-06-01 06:45:00,65.6,60.3,30.07,SSW,202,0.0,3.0,83,0.00,,,0.00,Wunderground v.1.15,2013-06-01 10:45:00,
2013-06-01 06:50:00,65.6,60.0,30.07,SSW,195,0.0,0.0,82,0.00,,,0.00,Wunderground v.1.15,2013-06-01 10:50:00,
2013-06-01 06:55:00,65.8,60.5,30.07,South,191,0.0,0.0,83,0.00,,,0.00,Wunderground v.1.15,2013-06-01 10:55:00,
2013-06-01 07:00:00,65.8,60.5,30.07,South,191,0.0,0.0,83,0.00,,,0.00,Wunderground v.1.15,2013-06-01 11:00:00,
2013-06-01 07:05:00,65.8,60.5,30.07,NW,321,0.0,0.0,83,0.00,,,0.00,Wunderground v.1.15,2013-06-01 11:05:00,
2013-06-01 07:10:00,65.8,60.8,30.07,SSE,163,0.0,0.0,84,0.00,,,0.00,Wunderground v.1.15,2013-06-01 11:10:00,
2013-06-01 07:15:00,65.9,60.9,30.07,SSE,163,0.0,0.0,84,0.00,,,0.00,Wunderground v.1.15,2013-06-01 11:15:00,
2013-06-01 07:20:00,66.0,61.0,30.07,SSE,163,0.0,0.0,84,0.00,,,0.00,Wunderground v.1.15,2013-06-01 11:20:00,
2013-06-01 07:25:00,66.2,61.2,30.07,SSE,163,0.0,0.0,84,0.00,,,0.00,Wunderground v.1.15,2013-06-01 11:25:00,
2013-06-01 07:30:00,66.7,61.4,30.07,SW,225,0.0,1.0,83,0.00,,,0.00,Wunderground v.1.15,2013-06-01 11:30:00,
2013-06-01 07:35:00,67.4,61.7,30.07,SW,225,0.0,1.0,82,0.00,,,0.00,Wunderground v.1.15,2013-06-01 11:35:00,
2013-06-01 07:40:00,68.2,61.8,30.07,ESE,110,0.0,0.0,80,0.00,,,0.00,Wunderground v.1.15,2013-06-01 11:40:00,
2013-06-01 07:45:00,69.0,62.9,30.07,ESE,110,0.0,0.0,81,0.00,,,0.00,Wunderground v.1.15,2013-06-01 11:45:00,
2013-06-01 07:50:00,69.7,62.5,30.07,East,101,0.0,0.0,78,0.00,,,0.00,Wunderground v.1.15,2013-06-01 11:50:00,
2013-06-01 07:55:00,70.5,62.6,30.07,ESE,103,0.0,2.0,76,0.00,,,0.00,Wunderground v.1.15,2013-06-01 11:55:00,
2013-06-01 08:00:00,71.3,63.0,30.07,ESE,123,0.0,2.0,75,0.00,,,0.00,Wunderground v.1.15,2013-06-01 12:00:00,
2013-06-01 08:05:00,71.8,62.7,30.07,ESE,120,0.0,8.0,73,0.00,,,0.00,Wunderground v.1.15,2013-06-01 12:05:00,
2013-06-01 08:10:00,72.1,63.0,30.06,East,83,1.0,5.0,73,0.00,,,0.00,Wunderground v.1.15,2013-06-01 12:10:00,
2013-06-01 08:15:00,72.5,63.4,30.06,East,97,0.0,5.0,73,0.00,,,0.00,Wunderground v.1.15,2013-06-01 12:15:00,
2013-06-01 08:20:00,73.0,63.4,30.06,East,97,0.0,0.0,72,0.00,,,0.00,Wunderground v.1.15,2013-06-01 12:20:00,
2013-06-01 08:25:00,73.1,63.5,30.06,ESE,107,0.0,1.0,72,0.00,,,0.00,Wunderground v.1.15,2013-06-01 12:25:00,
2013-06-01 08:30:00,73.3,63.3,30.06,SE,134,0.0,0.0,71,0.00,,,0.00,Wunderground v.1.15,2013-06-01 12:30:00,
2013-06-01 08:35:00,73.2,63.2,30.06,SW,217,4.0,4.0,71,0.00,,,0.00,Wunderground v.1.15,2013-06-01 12:35:00,
2013-06-01 08:40:00,73.5,63.5,30.06,ESE,109,0.0,4.0,71,0.00,,,0.00,Wunderground v.1.15,2013-06-01 12:40:00,
2013-06-01 08:45:00,73.7,63.7,30.06,SE,132,0.0,4.0,71,0.00,,,0.00,Wunderground v.1.15,2013-06-01 12:45:00,
2013-06-01 08:50:00,73.3,63.3,30.06,ENE,68,0.0,0.0,71,0.00,,,0.00,Wunderground v.1.15,2013-06-01 12:50:00,
2013-06-01 08:55:00,73.1,63.5,30.07,ENE,68,0.0,2.0,72,0.00,,,0.00,Wunderground v.1.15,2013-06-01 12:55:00,
2013-06-01 09:00:00,72.6,63.1,30.07,ENE,68,0.0,0.0,72,0.00,,,0.00,Wunderground v.1.15,2013-06-01 13:00:00,
2013-06-01 09:05:00,72.0,63.3,30.07,ENE,74,0.0,1.0,74,0.00,,,0.00,Wunderground v.1.15,2013-06-01 13:05:00,
2013-06-01 09:10:00,71.5,62.4,30.07,SE,142,0.0,0.0,73,0.00,,,0.00,Wunderground v.1.15,2013-06-01 13:10:00,
2013-06-01 09:15:00,71.6,63.3,30.07,SE,132,2.0,2.0,75,0.00,,,0.00,Wunderground v.1.15,2013-06-01 13:15:00,
2013-06-01 09:20:00,71.5,63.2,30.07,East,94,0.0,0.0,75,0.00,,,0.00,Wunderground v.1.15,2013-06-01 13:20:00,
2013-06-01 09:25:00,71.5,62.8,30.07,East,88,0.0,4.0,74,0.00,,,0.00,Wunderground v.1.15,2013-06-01 13:25:00,
2013-06-01 09:30:00,71.6,63.6,30.07,East,88,0.0,0.0,76,0.00,,,0.00,Wunderground v.1.15,2013-06-01 13:30:00,
2013-06-01 09:35:00,71.9,63.2,30.07,East,82,3.0,5.0,74,0.00,,,0.00,Wunderground v.1.15,2013-06-01 13:35:00,
2013-06-01 09:40:00,71.8,63.1,30.07,ENE,67,0.0,1.0,74,0.00,,,0.00,Wunderground v.1.15,2013-06-01 13:40:00,
2013-06-01 09:45:00,71.7,63.4,30.07,ENE,59,1.0,4.0,75,0.00,,,0.00,Wunderground v.1.15,2013-06-01 13:45:00,
2013-06-01 09:50:00,71.3,63.0,30.07,ENE,59,0.0,1.0,75,0.00,,,0.00,Wunderground v.1.15,2013-06-01 13:50:00,
2013-06-01 09:55:00,70.9,63.0,30.06,ENE,71,0.0,3.0,76,0.00,,,0.00,Wunderground v.1.15,2013-06-01 13:55:00,
2013-06-01 10:00:00,70.8,62.9,30.06,ENE,63,0.0,1.0,76,0.00,,,0.00,Wunderground v.1.15,2013-06-01 14:00:00,
2013-06-01 10:05:00,70.8,63.2,30.06,ENE,61,0.0,4.0,77,0.00,,,0.00,Wunderground v.1.15,2013-06-01 14:05:00,
2013-06-01 10:10:00,71.1,63.1,30.06,ENE,61,0.0,0.0,76,0.00,,,0.00,Wunderground v.1.15,2013-06-01 14:10:00,
2013-06-01 10:15:00,71.3,63.3,30.06,NE,40,3.0,4.0,76,0.00,,,0.00,Wunderground v.1.15,2013-06-01 14:15:00,
2013-06-01 10:20:00,71.4,63.1,30.06,NE,40,0.0,1.0,75,0.00,,,0.00,Wunderground v.1.15,2013-06-01 14:20:00,
2013-06-01 10:25:00,71.3,63.0,30.06,NE,56,0.0,4.0,75,0.00,,,0.00,Wunderground v.1.15,2013-06-01 14:25:00,
2013-06-01 10:30:00,71.3,63.3,30.06,NE,34,0.0,0.0,76,0.00,,,0.00,Wunderground v.1.15,2013-06-01 14:30:00,
2013-06-01 10:35:00,71.8,64.2,30.05,ESE,116,0.0,4.0,77,0.00,,,0.00,Wunderground v.1.15,2013-06-01 14:35:00,
2013-06-01 10:40:00,72.7,64.3,30.05,East,79,0.0,2.0,75,0.00,,,0.00,Wunderground v.1.15,2013-06-01 14:40:00,
2013-06-01 10:45:00,73.7,64.9,30.05,ESE,118,0.0,5.0,74,0.00,,,0.00,Wunderground v.1.15,2013-06-01 14:45:00,
2013-06-01 10:50:00,74.7,64.3,30.05,SE,145,0.0,2.0,70,0.00,,,0.00,Wunderground v.1.15,2013-06-01 14:50:00,
2013-06-01 10:55:00,75.1,64.2,30.05,SW,235,2.0,6.0,69,0.00,,,0.00,Wunderground v.1.15,2013-06-01 14:55:00,
2013-06-01 11:00:00,75.2,64.3,30.05,NNW,336,0.0,4.0,69,0.00,,,0.00,Wunderground v.1.15,2013-06-01 15:00:00,
2013-06-01 11:05:00,74.7,63.4,30.05,NE,50,8.0,8.0,68,0.00,,,0.00,Wunderground v.1.15,2013-06-01 15:05:00,
2013-06-01 11:10:00,73.9,63.9,30.05,NE,52,0.0,3.0,71,0.00,,,0.00,Wunderground v.1.15,2013-06-01 15:10:00,
2013-06-01 11:15:00,73.6,64.4,30.05,SSE,157,8.0,8.0,73,0.00,,,0.00,Wunderground v.1.15,2013-06-01 15:15:00,
2013-06-01 11:20:00,73.1,63.5,30.05,WNW,299,4.0,4.0,72,0.00,,,0.00,Wunderground v.1.15,2013-06-01 15:20:00,
2013-06-01 11:25:00,73.1,63.9,30.05,SW,223,0.0,5.0,73,0.00,,,0.00,Wunderground v.1.15,2013-06-01 15:25:00,
2013-06-01 11:30:00,73.3,63.7,30.05,SW,222,0.0,1.0,72,0.00,,,0.00,Wunderground v.1.15,2013-06-01 15:30:00,
2013-06-01 11:35:00,73.4,63.4,30.05,NNW,337,3.0,4.0,71,0.00,,,0.00,Wunderground v.1.15,2013-06-01 15:35:00,
2013-06-01 11:40:00,73.2,63.6,30.05,SW,228,0.0,1.0,72,0.00,,,0.00,Wunderground v.1.15,2013-06-01 15:40:00,
2013-06-01 11:45:00,73.0,64.2,30.05,WNW,300,0.0,2.0,74,0.00,,,0.00,Wunderground v.1.15,2013-06-01 15:45:00,
2013-06-01 11:50:00,73.1,63.5,30.05,NW,311,0.0,0.0,72,0.00,,,0.00,Wunderground v.1.15,2013-06-01 15:50:00,
2013-06-01 11:55:00,73.0,63.8,30.05,NE,48,0.0,3.0,73,0.00,,,0.00,Wunderground v.1.15,2013-06-01 15:55:00,
2013-06-01 12:00:00,73.1,63.1,30.05,South,186,2.0,2.0,71,0.00,,,0.00,Wunderground v.1.15,2013-06-01 16:00:00,
2013-06-01 12:05:00,73.7,64.1,30.05,WNW,297,1.0,3.0,72,0.00,,,0.00,Wunderground v.1.15,2013-06-01 16:05:00,
2013-06-01 12:10:00,73.6,63.6,30.06,WSW,251,0.0,1.0,71,0.00,,,0.00,Wunderground v.1.15,2013-06-01 16:10:00,
2013-06-01 12:15:00,73.4,63.8,30.05,East,96,0.0,4.0,72,0.00,,,0.00,Wunderground v.1.15,2013-06-01 16:15:00,
2013-06-01 12:20:00,73.1,63.9,30.06,East,94,0.0,1.0,73,0.00,,,0.00,Wunderground v.1.15,2013-06-01 16:20:00,
2013-06-01 12:25:00,72.9,63.3,30.05,East,94,0.0,1.0,72,0.00,,,0.00,Wunderground v.1.15,2013-06-01 16:25:00,
2013-06-01 12:30:00,72.8,63.2,30.06,East,88,0.0,1.0,72,0.00,,,0.00,Wunderground v.1.15,2013-06-01 16:30:00,
2013-06-01 12:36:00,72.9,62.9,30.05,WSW,257,1.0,8.0,71,0.00,,,0.00,Wunderground v.1.15,2013-06-01 16:36:00,
2013-06-01 12:41:00,73.1,62.7,30.05,ENE,59,3.0,3.0,70,0.00,,,0.00,Wunderground v.1.15,2013-06-01 16:41:00,
2013-06-01 12:46:00,73.3,63.3,30.05,NE,51,0.0,5.0,71,0.00,,,0.00,Wunderground v.1.15,2013-06-01 16:46:00,
2013-06-01 12:51:00,73.6,63.6,30.05,NE,55,2.0,2.0,71,0.00,,,0.00,Wunderground v.1.15,2013-06-01 16:51:00,
2013-06-01 12:56:00,73.8,63.0,30.04,NE,56,0.0,4.0,69,0.00,,,0.00,Wunderground v.1.15,2013-06-01 16:56:00,
2013-06-01 13:01:00,74.1,64.1,30.05,ENE,76,0.0,2.0,71,0.00,,,0.00,Wunderground v.1.15,2013-06-01 17:01:00,
2013-06-01 13:06:00,74.2,63.8,30.05,East,80,0.0,2.0,70,0.00,,,0.00,Wunderground v.1.15,2013-06-01 17:06:00,
2013-06-01 13:11:00,74.3,63.1,30.05,East,90,0.0,1.0,68,0.00,,,0.00,Wunderground v.1.15,2013-06-01 17:11:00,
2013-06-01 13:16:00,74.6,62.5,30.05,NE,39,1.0,1.0,66,0.00,,,0.00,Wunderground v.1.15,2013-06-01 17:16:00,
2013-06-01 13:21:00,74.9,62.8,30.04,SSW,195,0.0,6.0,66,0.00,,,0.00,Wunderground v.1.15,2013-06-01 17:21:00,
2013-06-01 13:26:00,75.0,62.0,30.05,East,94,0.0,6.0,64,0.00,,,0.00,Wunderground v.1.15,2013-06-01 17:26:00,
2013-06-01 13:31:00,75.0,62.4,30.05,East,97,0.0,1.0,65,0.00,,,0.00,Wunderground v.1.15,2013-06-01 17:31:00,
2013-06-01 13:36:00,75.2,63.5,30.05,NNW,333,0.0,4.0,67,0.00,,,0.00,Wunderground v.1.15,2013-06-01 17:36:00,
2013-06-01 13:41:00,75.2,62.6,30.04,NW,324,2.0,2.0,65,0.00,,,0.00,Wunderground v.1.15,2013-06-01 17:41:00,
2013-06-01 13:46:00,75.2,62.2,30.04,NE,37,1.0,4.0,64,0.00,,,0.00,Wunderground v.1.15,2013-06-01 17:46:00,
2013-06-01 13:51:00,75.4,63.7,30.04,East,84,0.0,1.0,67,0.00,,,0.00,Wunderground v.1.15,2013-06-01 17:51:00,
2013-06-01 13:56:00,76.2,63.1,30.04,ENE,61,0.0,5.0,64,0.00,,,0.00,Wunderground v.1.15,2013-06-01 17:56:00,
2013-06-01 14:01:00,76.5,63.4,30.04,ENE,68,2.0,3.0,64,0.00,,,0.00,Wunderground v.1.15,2013-06-01 18:01:00,
2013-06-01 14:06:00,76.3,64.1,30.04,ENE,70,0.0,4.0,66,0.00,,,0.00,Wunderground v.1.15,2013-06-01 18:06:00,
2013-06-01 14:11:00,76.2,63.1,30.04,East,91,0.0,4.0,64,0.00,,,0.00,Wunderground v.1.15,2013-06-01 18:11:00,
2013-06-01 14:16:00,75.7,64.4,30.04,SE,146,0.0,9.0,68,0.00,,,0.00,Wunderground v.1.15,2013-06-01 18:16:00,
2013-06-01 14:21:00,75.8,64.5,30.04,West,259,0.0,1.0,68,0.00,,,0.00,Wunderground v.1.15,2013-06-01 18:21:00,
2013-06-01 14:26:00,75.9,62.8,30.04,West,276,0.0,7.0,64,0.00,,,0.00,Wunderground v.1.15,2013-06-01 18:26:00,
2013-06-01 14:31:00,76.3,64.1,30.03,West,276,0.0,1.0,66,0.00,,,0.00,Wunderground v.1.15,2013-06-01 18:31:00,
2013-06-01 14:36:00,76.6,63.1,30.03,WNW,295,0.0,1.0,63,0.00,,,0.00,Wunderground v.1.15,2013-06-01 18:36:00,
2013-06-01 14:41:00,77.0,65.2,30.03,NNE,33,0.0,1.0,67,0.00,,,0.00,Wunderground v.1.15,2013-06-01 18:41:00,
2013-06-01 14:46:00,77.4,65.1,30.03,NE,44,1.0,1.0,66,0.00,,,0.00,Wunderground v.1.15,2013-06-01 18:46:00,
2013-06-01 14:51:00,77.6,64.0,30.03,NE,44,0.0,0.0,63,0.00,,,0.00,Wunderground v.1.15,2013-06-01 18:51:00,
2013-06-01 14:56:00,77.9,64.7,30.03,NE,44,0.0,1.0,64,0.00,,,0.00,Wunderground v.1.15,2013-06-01 18:56:00,
2013-06-01 15:01:00,78.3,65.6,30.03,SE,130,4.0,4.0,65,0.00,,,0.00,Wunderground v.1.15,2013-06-01 19:01:00,
2013-06-01 15:06:00,78.2,64.6,30.02,NE,54,2.0,6.0,63,0.00,,,0.00,Wunderground v.1.15,2013-06-01 19:06:00,
2013-06-01 15:11:00,77.8,65.1,30.02,SE,140,4.0,5.0,65,0.00,,,0.00,Wunderground v.1.15,2013-06-01 19:11:00,
2013-06-01 15:16:00,77.8,64.6,30.02,SE,128,0.0,9.0,64,0.00,,,0.00,Wunderground v.1.15,2013-06-01 19:16:00,
2013-06-01 15:21:00,77.4,63.8,30.01,East,88,3.0,6.0,63,0.00,,,0.00,Wunderground v.1.15,2013-06-01 19:21:00,
2013-06-01 15:26:00,77.6,64.9,30.01,ENE,67,7.0,8.0,65,0.00,,,0.00,Wunderground v.1.15,2013-06-01 19:26:00,
2013-06-01 15:31:00,77.4,65.1,30.01,ENE,77,0.0,4.0,66,0.00,,,0.00,Wunderground v.1.15,2013-06-01 19:31:00,
2013-06-01 15:36:00,77.7,65.0,30.00,SE,124,5.0,7.0,65,0.00,,,0.00,Wunderground v.1.15,2013-06-01 19:36:00,
2013-06-01 15:41:00,78.3,64.7,30.00,ESE,123,6.0,7.0,63,0.00,,,0.00,Wunderground v.1.15,2013-06-01 19:41:00,
2013-06-01 15:46:00,78.7,64.1,30.00,ESE,111,0.0,8.0,61,0.00,,,0.00,Wunderground v.1.15,2013-06-01 19:46:00,
2013-06-01 15:51:00,78.7,65.0,30.00,WSW,242,2.0,7.0,63,0.00,,,0.00,Wunderground v.1.15,2013-06-01 19:51:00,
2013-06-01 15:56:00,78.4,64.3,30.00,ENE,74,7.0,7.0,62,0.00,,,0.00,Wunderground v.1.15,2013-06-01 19:56:00,
2013-06-01 16:01:00,77.5,64.4,30.00,NE,56,0.0,2.0,64,0.00,,,0.00,Wunderground v.1.15,2013-06-01 20:01:00,
2013-06-01 16:06:00,77.0,65.2,30.00,ENE,62,0.0,4.0,67,0.00,,,0.00,Wunderground v.1.15,2013-06-01 20:06:00,
2013-06-01 16:11:00,76.7,64.9,30.00,ESE,111,0.0,5.0,67,0.00,,,0.00,Wunderground v.1.15,2013-06-01 20:11:00,
2013-06-01 16:16:00,76.4,64.6,30.00,ESE,102,6.0,8.0,67,0.00,,,0.00,Wunderground v.1.15,2013-06-01 20:16:00,
2013-06-01 16:21:00,76.2,64.0,30.00,SE,135,0.0,2.0,66,0.00,,,0.00,Wunderground v.1.15,2013-06-01 20:21:00,
2013-06-01 16:26:00,76.3,65.0,30.00,SSW,197,1.0,3.0,68,0.00,,,0.00,Wunderground v.1.15,2013-06-01 20:26:00,
2013-06-01 16:31:00,76.0,64.7,29.99,NE,46,2.0,7.0,68,0.00,,,0.00,Wunderground v.1.15,2013-06-01 20:31:00,
2013-06-01 16:36:00,75.9,64.2,29.99,SE,134,0.0,7.0,67,0.00,,,0.00,Wunderground v.1.15,2013-06-01 20:36:00,
2013-06-01 16:41:00,76.2,64.4,29.99,NE,35,4.0,6.0,67,0.00,,,0.00,Wunderground v.1.15,2013-06-01 20:41:00,
2013-06-01 16:46:00,76.1,64.8,29.99,ESE,109,0.0,8.0,68,0.00,,,0.00,Wunderground v.1.15,2013-06-01 20:46:00,
2013-06-01 16:51:00,75.9,64.2,29.99,South,186,5.0,7.0,67,0.00,,,0.00,Wunderground v.1.15,2013-06-01 20:51:00,
2013-06-01 16:56:00,75.9,64.6,29.99,East,99,1.0,7.0,68,0.00,,,0.00,Wunderground v.1.15,2013-06-01 20:56:00,
2013-06-01 17:01:00,75.8,64.1,29.99,ENE,71,3.0,5.0,67,0.00,,,0.00,Wunderground v.1.15,2013-06-01 21:01:00,
2013-06-01 17:06:00,75.9,65.0,29.99,ENE,69,1.0,6.0,69,0.00,,,0.00,Wunderground v.1.15,2013-06-01 21:06:00,
2013-06-01 17:11:00,75.9,65.4,29.98,SE,140,0.0,4.0,70,0.00,,,0.00,Wunderground v.1.15,2013-06-01 21:11:00,
2013-06-01 17:16:00,76.1,65.2,29.98,North,5,0.0,5.0,69,0.00,,,0.00,Wunderground v.1.15,2013-06-01 21:16:00,
2013-06-01 17:21:00,76.3,65.0,29.98,SSE,167,0.0,1.0,68,0.00,,,0.00,Wunderground v.1.15,2013-06-01 21:21:00,
2013-06-01 17:26:00,76.3,64.1,29.98,West,279,0.0,5.0,66,0.00,,,0.00,Wunderground v.1.15,2013-06-01 21:26:00,
2013-06-01 17:31:00,76.2,64.9,29.98,NW,309,0.0,3.0,68,0.00,,,0.00,Wunderground v.1.15,2013-06-01 21:31:00,
2013-06-01 17:36:00,76.2,64.9,29.98,ESE,107,4.0,7.0,68,0.00,,,0.00,Wunderground v.1.15,2013-06-01 21:36:00,
2013-06-01 17:41:00,76.3,64.5,29.98,ENE,65,0.0,5.0,67,0.00,,,0.00,Wunderground v.1.15,2013-06-01 21:41:00,
2013-06-01 17:46:00,76.2,64.9,29.98,NNE,29,1.0,5.0,68,0.00,,,0.00,Wunderground v.1.15,2013-06-01 21:46:00,
2013-06-01 17:51:00,75.9,64.6,29.98,East,82,0.0,6.0,68,0.00,,,0.00,Wunderground v.1.15,2013-06-01 21:51:00,
2013-06-01 17:56:00,75.6,64.7,29.97,NE,38,0.0,6.0,69,0.00,,,0.00,Wunderground v.1.15,2013-06-01 21:56:00,
2013-06-01 18:01:00,75.4,64.5,29.97,East,94,4.0,5.0,69,0.00,,,0.00,Wunderground v.1.15,2013-06-01 22:01:00,
2013-06-01 18:06:00,75.3,64.8,29.97,ESE,116,0.0,6.0,70,0.00,,,0.00,Wunderground v.1.15,2013-06-01 22:06:00,
2013-06-01 18:11:00,75.2,65.1,29.97,East,92,4.0,7.0,71,0.00,,,0.00,Wunderground v.1.15,2013-06-01 22:11:00,
2013-06-01 18:16:00,75.2,64.3,29.97,East,84,0.0,7.0,69,0.00,,,0.00,Wunderground v.1.15,2013-06-01 22:16:00,
2013-06-01 18:21:00,75.2,64.7,29.98,NE,49,0.0,2.0,70,0.00,,,0.00,Wunderground v.1.15,2013-06-01 22:21:00,
2013-06-01 18:26:00,75.2,65.1,29.98,NE,49,0.0,2.0,71,0.00,,,0.00,Wunderground v.1.15,2013-06-01 22:26:00,
2013-06-01 18:31:00,75.3,64.8,29.97,East,86,3.0,5.0,70,0.00,,,0.00,Wunderground v.1.15,2013-06-01 22:31:00,
2013-06-01 18:36:00,75.5,65.0,29.97,South,175,0.0,5.0,70,0.00,,,0.00,Wunderground v.1.15,2013-06-01 22:36:00,
2013-06-01 18:41:00,75.5,64.6,29.97,NE,34,0.0,1.0,69,0.00,,,0.00,Wunderground v.1.15,2013-06-01 22:41:00,
2013-06-01 18:46:00,75.1,64.6,29.97,ESE,119,0.0,4.0,70,0.00,,,0.00,Wunderground v.1.15,2013-06-01 22:46:00,
2013-06-01 18:51:00,74.8,64.8,29.98,East,98,0.0,2.0,71,0.00,,,0.00,Wunderground v.1.15,2013-06-01 22:51:00,
2013-06-01 18:56:00,74.6,64.6,29.98,ENE,63,0.0,3.0,71,0.00,,,0.00,Wunderground v.1.15,2013-06-01 22:56:00,
2013-06-01 19:01:00,74.5,64.5,29.98,East,93,0.0,1.0,71,0.00,,,0.00,Wunderground v.1.15,2013-06-01 23:01:00,
2013-06-01 19:06:00,74.4,64.8,29.97,East,90,4.0,4.0,72,0.00,,,0.00,Wunderground v.1.15,2013-06-01 23:06:00,
2013-06-01 19:11:00,74.3,64.7,29.97,East,80,1.0,1.0,72,0.00,,,0.00,Wunderground v.1.15,2013-06-01 23:11:00,
2013-06-01 19:16:00,74.2,64.6,29.97,ESE,108,0.0,5.0,72,0.00,,,0.00,Wunderground v.1.15,2013-06-01 23:16:00,
2013-06-01 19:21:00,74.1,64.5,29.97,ENE,59,0.0,1.0,72,0.00,,,0.00,Wunderground v.1.15,2013-06-01 23:21:00,
2013-06-01 19:26:00,74.0,64.4,29.97,North,355,0.0,5.0,72,0.00,,,0.00,Wunderground v.1.15,2013-06-01 23:26:00,
2013-06-01 19:31:00,73.9,64.3,29.97,NE,46,0.0,2.0,72,0.00,,,0.00,Wunderground v.1.15,2013-06-01 23:31:00,
2013-06-01 19:36:00,73.7,64.5,29.97,NE,54,0.0,4.0,73,0.00,,,0.00,Wunderground v.1.15,2013-06-01 23:36:00,
2013-06-01 19:41:00,73.6,64.4,29.97,NE,42,4.0,4.0,73,0.00,,,0.00,Wunderground v.1.15,2013-06-01 23:41:00,
2013-06-01 19:46:00,73.4,64.2,29.97,SW,236,4.0,4.0,73,0.00,,,0.00,Wunderground v.1.15,2013-06-01 23:46:00,
2013-06-01 19:51:00,73.3,64.1,29.97,SSW,206,0.0,1.0,73,0.00,,,0.00,Wunderground v.1.15,2013-06-01 23:51:00,
2013-06-01 19:56:00,73.2,64.4,29.97,SSW,206,0.0,1.0,74,0.00,,,0.00,Wunderground v.1.15,2013-06-01 23:56:00,
2013-06-01 20:01:00,73.1,64.3,29.97,SSE,157,0.0,0.0,74,0.00,,,0.00,Wunderground v.1.15,2013-06-02 00:01:00,
2013-06-01 20:06:00,73.0,64.2,29.97,ENE,62,0.0,1.0,74,0.00,,,0.00,Wunderground v.1.15,2013-06-02 00:06:00,
2013-06-01 20:11:00,72.9,64.1,29.97,ENE,62,0.0,0.0,74,0.00,,,0.00,Wunderground v.1.15,2013-06-02 00:11:00,
2013-06-01 20:16:00,72.8,64.0,29.98,ENE,62,0.0,1.0,74,0.00,,,0.00,Wunderground v.1.15,2013-06-02 00:16:00,
2013-06-01 20:21:00,72.8,64.0,29.97,ENE,62,0.0,0.0,74,0.00,,,0.00,Wunderground v.1.15,2013-06-02 00:21:00,
2013-06-01 20:26:00,72.8,64.0,29.97,ENE,62,0.0,0.0,74,0.00,,,0.00,Wunderground v.1.15,2013-06-02 00:26:00,
2013-06-01 20:31:00,72.8,64.0,29.97,ENE,62,0.0,0.0,74,0.00,,,0.00,Wunderground v.1.15,2013-06-02 00:31:00,
2013-06-01 20:36:00,72.7,63.9,29.97,ENE,63,0.0,2.0,74,0.00,,,0.00,Wunderground v.1.15,2013-06-02 00:36:00,
2013-06-01 20:41:00,72.7,63.9,29.97,ENE,59,1.0,4.0,74,0.00,,,0.00,Wunderground v.1.15,2013-06-02 00:41:00,
2013-06-01 20:46:00,72.7,63.9,29.98,NE,53,0.0,4.0,74,0.00,,,0.00,Wunderground v.1.15,2013-06-02 00:46:00,
2013-06-01 20:51:00,72.6,64.2,29.98,NE,53,0.0,0.0,75,0.00,,,0.00,Wunderground v.1.15,2013-06-02 00:51:00,
2013-06-01 20:56:00,72.6,64.2,29.98,NE,53,0.0,0.0,75,0.00,,,0.00,Wunderground v.1.15,2013-06-02 00:56:00,
2013-06-01 21:01:00,72.4,64.0,29.98,NE,53,0.0,0.0,75,0.00,,,0.00,Wunderground v.1.15,2013-06-02 01:01:00,
2013-06-01 21:06:00,72.3,64.3,29.99,NE,53,0.0,0.0,76,0.00,,,0.00,Wunderground v.1.15,2013-06-02 01:06:00,
2013-06-01 21:11:00,72.2,64.2,29.99,NE,53,0.0,0.0,76,0.00,,,0.00,Wunderground v.1.15,2013-06-02 01:11:00,
2013-06-01 21:16:00,72.1,64.5,29.99,NE,53,0.0,0.0,77,0.00,,,0.00,Wunderground v.1.15,2013-06-02 01:16:00,
2013-06-01 21:21:00,71.9,64.3,29.99,NE,53,0.0,0.0,77,0.00,,,0.00,Wunderground v.1.15,2013-06-02 01:21:00,
2013-06-01 21:26:00,71.7,64.8,30.00,NE,53,0.0,0.0,79,0.00,,,0.00,Wunderground v.1.15,2013-06-02 01:26:00,
2013-06-01 21:31:00,71.4,63.8,30.00,NE,53,0.0,0.0,77,0.00,,,0.00,Wunderground v.1.15,2013-06-02 01:31:00,
2013-06-01 21:36:00,71.3,64.8,29.99,NE,53,0.0,1.0,80,0.00,,,0.00,Wunderground v.1.15,2013-06-02 01:36:00,
2013-06-01 21:41:00,71.0,64.5,29.99,NE,53,0.0,0.0,80,0.00,,,0.00,Wunderground v.1.15,2013-06-02 01:41:00,
2013-06-01 21:46:00,70.7,64.6,30.00,NE,53,0.0,0.0,81,0.00,,,0.00,Wunderground v.1.15,2013-06-02 01:46:00,
2013-06-01 21:51:00,70.5,64.0,30.00,NE,53,0.0,0.0,80,0.00,,,0.00,Wunderground v.1.15,2013-06-02 01:51:00,
2013-06-01 21:56:00,70.3,64.5,30.01,NE,53,0.0,1.0,82,0.00,,,0.00,Wunderground v.1.15,2013-06-02 01:56:00,
2013-06-01 22:01:00,70.2,64.4,30.01,NE,53,0.0,0.0,82,0.00,,,0.01,Wunderground v.1.15,2013-06-02 02:01:00,
2013-06-01 22:06:00,70.0,64.2,30.01,NE,55,0.0,1.0,82,0.00,,,0.01,Wunderground v.1.15,2013-06-02 02:06:00,
2013-06-01 22:11:00,69.9,65.2,30.01,ENE,61,0.0,0.0,85,0.63,,,0.04,Wunderground v.1.15,2013-06-02 02:11:00,
2013-06-01 22:16:00,69.7,65.3,30.02,SSW,203,3.0,3.0,86,2.67,,,0.18,Wunderground v.1.15,2013-06-02 02:16:00,
2013-06-01 22:21:00,69.2,65.2,30.02,SSW,206,0.0,1.0,87,2.97,,,0.50,Wunderground v.1.15,2013-06-02 02:21:00,
2013-06-01 22:26:00,68.6,64.9,30.02,SSW,206,0.0,1.0,88,0.21,,,0.54,Wunderground v.1.15,2013-06-02 02:26:00,
2013-06-01 22:31:00,68.3,64.9,30.03,WSW,244,0.0,3.0,89,0.10,,,0.54,Wunderground v.1.15,2013-06-02 02:31:00,
2013-06-01 22:36:00,68.0,64.6,30.03,WSW,244,0.0,3.0,89,0.06,,,0.54,Wunderground v.1.15,2013-06-02 02:36:00,
2013-06-01 22:41:00,67.7,64.7,30.02,WSW,242,0.0,0.0,90,0.04,,,0.55,Wunderground v.1.15,2013-06-02 02:41:00,
2013-06-01 22:46:00,67.5,64.5,30.02,WSW,242,0.0,0.0,90,0.04,,,0.55,Wunderground v.1.15,2013-06-02 02:46:00,
2013-06-01 22:51:00,67.4,64.7,30.01,WSW,242,0.0,0.0,91,0.04,,,0.55,Wunderground v.1.15,2013-06-02 02:51:00,
2013-06-01 22:56:00,67.4,64.7,30.01,WSW,242,0.0,1.0,91,0.00,,,0.55,Wunderground v.1.15,2013-06-02 02:56:00,
2013-06-01 23:01:00,67.3,64.6,30.02,WSW,242,0.0,0.0,91,0.00,,,0.55,Wunderground v.1.15,2013-06-02 03:01:00,
2013-06-01 23:06:00,67.2,64.5,30.02,WSW,242,0.0,0.0,91,0.00,,,0.55,Wunderground v.1.15,2013-06-02 03:06:00,
2013-06-01 23:11:00,67.1,64.7,30.02,WSW,242,0.0,0.0,92,0.00,,,0.55,Wunderground v.1.15,2013-06-02 03:11:00,
2013-06-01 23:16:00,67.0,64.6,30.01,WSW,242,0.0,0.0,92,0.00,,,0.56,Wunderground v.1.15,2013-06-02 03:16:00,
2013-06-01 23:21:00,67.0,64.6,30.01,WSW,242,0.0,1.0,92,0.00,,,0.56,Wunderground v.1.15,2013-06-02 03:21:00,
2013-06-01 23:26:00,66.9,64.5,30.00,SE,126,1.0,4.0,92,0.00,,,0.56,Wunderground v.1.15,2013-06-02 03:26:00,
2013-06-01 23:31:00,66.9,64.5,30.01,SE,126,0.0,0.0,92,0.00,,,0.56,Wunderground v.1.15,2013-06-02 03:31:00,
2013-06-01 23:36:00,66.9,64.5,29.99,SE,126,0.0,1.0,92,0.00,,,0.56,Wunderground v.1.15,2013-06-02 03:36:00,
2013-06-01 23:41:00,66.9,64.5,29.99,SE,126,0.0,0.0,92,0.00,,,0.56,Wunderground v.1.15,2013-06-02 03:41:00,
2013-06-01 23:46:00,66.8,64.4,29.99,SE,126,0.0,0.0,92,0.00,,,0.56,Wunderground v.1.15,2013-06-02 03:46:00,
2013-06-01 23:51:00,66.8,64.4,29.98,ESE,121,0.0,0.0,92,0.00,,,0.56,Wunderground v.1.15,2013-06-02 03:51:00,
2013-06-01 23:56:00,66.7,64.3,29.97,ESE,121,0.0,0.0,92,0.00,,,0.56,Wunderground v.1.15,2013-06-02 03:56:00,